Weather History for Salt Lake City, UT

Change the Weather History Date:

Saturday, January 14, 2012

  Actual Average Record
Temperature  
Mean Temperature 29 °F 29 °F  
Max Temperature 42 °F 37 °F 59 °F (1945)
Min Temperature 16 °F 22 °F -10 °F (1932)
Degree Days  
Heating Degree Days 36 36  
Month to date heating degree days 489 504  
Since 1 July heating degree days 2693 2798  
Cooling Degree Days 0 0  
Month to date cooling degree days 0 0  
Year to date cooling degree days 0 0  
Moisture  
Dew Point 16 °F    
Average Humidity 55    
Maximum Humidity 80    
Minimum Humidity 30    
Precipitation  
Precipitation 0.00 in 0.04 in 1.36 in (1953)
Month to date precipitation 0.26 0.59  
Year to date precipitation 0.26 0.59  
Snow  
Snow 0.00 in 0.50 in 8.50 in (1953)
Month to date snowfall 3.9 6.1  
Since 1 July snowfall 9.5 28.3  
Snow Depth 0.00 in    
Sea Level Pressure  
Sea Level Pressure 30.23 in    
Wind  
Wind Speed 3 mph (WNW)    
Max Wind Speed 12 mph    
Max Gust Speed 13 mph    
Visibility 10 miles    
Events      
T = Trace of Precipitation, MM = Missing Value Source: NWS Daily Summary

Daily Weather History Graph

Daily Weather History Graph

Search for Another Location

Airport:

Trip Planner

Search our weather history database for the weather conditions in past years. The results will help you decide how hot, cold, wet, or windy it might be!

Date:

Astronomy

Jan. 14, 2012 Rise Set
Actual Time 7:50 AM MST 5:23 PM MST
Civil Twilight 7:20 AM MST 5:53 PM MST
Nautical Twilight 6:46 AM MST 6:27 PM MST
Astronomical Twilight 6:13 AM MST 7:00 PM MST
Moon 11:51 PM MST (1/14) 10:35 AM MST (1/14)
Length of Visible Light 10h 33m
Length of Day
9h 32m
Waning Gibbous, 68% of the Moon is Illuminated
Jan 14
Waning Gibbous
Jan 16
Last Quarter
Jan 23
New
Jan 30
First Quarter
Feb 7
Full

Hourly Weather History & Observations

Time (MST) Temp. Windchill Dew Point Humidity Pressure Visibility Wind Dir Wind Speed Gust Speed Precip Events Conditions
12:53 AM 21.9 °F - 15.1 °F 75% 30.40 in 9.0 mi Calm Calm - N/A   Partly Cloudy
1:53 AM 19.0 °F 13.9 °F 12.9 °F 77% 30.39 in 10.0 mi WNW 3.5 mph - N/A   Partly Cloudy
2:53 AM 17.1 °F - 12.0 °F 81% 30.40 in 10.0 mi Calm Calm - N/A   Partly Cloudy
3:53 AM 18.0 °F 11.1 °F 12.9 °F 81% 30.38 in 10.0 mi SSW 4.6 mph - N/A   Partly Cloudy
4:53 AM 19.9 °F 14.9 °F 12.9 °F 74% 30.36 in 10.0 mi South 3.5 mph - N/A   Partly Cloudy
5:53 AM 19.0 °F - 12.0 °F 74% 30.37 in 10.0 mi Calm Calm - N/A   Scattered Clouds
6:53 AM 21.0 °F - 12.9 °F 71% 30.36 in 10.0 mi Calm Calm - N/A   Partly Cloudy
7:53 AM 21.0 °F 16.2 °F 12.9 °F 71% 30.35 in 10.0 mi SW 3.5 mph - N/A   Scattered Clouds
8:53 AM 21.0 °F - 14.0 °F 74% 30.33 in 10.0 mi Calm Calm - N/A   Scattered Clouds
9:53 AM 27.0 °F 18.0 °F 17.1 °F 66% 30.32 in 10.0 mi NW 9.2 mph - N/A   Scattered Clouds
10:53 AM 30.9 °F - 16.0 °F 54% 30.32 in 10.0 mi Calm Calm - N/A   Partly Cloudy
11:53 AM 35.1 °F 32.2 °F 18.0 °F 50% 30.26 in 10.0 mi SSE 3.5 mph - N/A   Partly Cloudy
12:53 PM 42.1 °F 39.2 °F 14.0 °F 32% 30.19 in 10.0 mi NW 4.6 mph - N/A   Partly Cloudy
1:53 PM 39.0 °F 33.4 °F 19.9 °F 46% 30.18 in 10.0 mi NNW 8.1 mph - N/A   Partly Cloudy
2:53 PM 39.2 °F 33.6 °F 17.6 °F 42% 30.11 in 10.0 mi NW 8.1 mph - N/A   Partly Cloudy
3:53 PM 37.0 °F 32.4 °F 21.9 °F 54% 30.16 in 10.0 mi West 5.8 mph - N/A   Partly Cloudy
4:53 PM 35.1 °F - 21.0 °F 57% 30.13 in 10.0 mi Calm Calm - N/A   Partly Cloudy
5:53 PM 33.1 °F - 19.0 °F 56% 30.12 in 10.0 mi Calm Calm - N/A   Partly Cloudy
6:53 PM 27.0 °F - 19.9 °F 75% 30.12 in 9.0 mi Calm Calm - N/A   Partly Cloudy
7:53 PM 26.1 °F 21.9 °F 19.9 °F 78% 30.11 in 9.0 mi North 3.5 mph - N/A   Partly Cloudy
8:53 PM 25.0 °F - 19.0 °F 78% 30.10 in 9.0 mi Calm Calm - N/A   Partly Cloudy
9:53 PM 23.0 °F 18.4 °F 18.0 °F 81% 30.08 in 7.0 mi North 3.5 mph - N/A   Partly Cloudy
10:53 PM 19.9 °F - 17.1 °F 89% 30.06 in 7.0 mi Calm Calm - N/A   Scattered Clouds
11:53 PM 30.9 °F 22.2 °F 16.0 °F 54% 29.99 in 10.0 mi SSE 10.4 mph - N/A   Scattered Clouds